This demonstration page uses our WeatherBlox Daily Observations layout. Learn more.

Left ArrowRight Arrow

39.01783, -85.05884

Hourly Observations for August 19, 2015

Temp ( °F °C ) Dew Point ( °F °C ) Humidity (%) Winds ( mph kmh ) Pressure ( in mb ) Visibility ( mi km ) Precip ( " mm )
12:52 am 00:52 Clear 71 21.7 67 19.4 87 87 SSW 6 9 29.86 1011 10 16.0934 N/A
1:52 am 01:52 Clear 72 22.2 67 19.4 84 84 SSW 6 9 29.85 1011 10 16.0934 N/A
2:52 am 02:52 Partly Cloudy 71 21.7 67 19.4 87 87 S 7 11 29.83 1010 10 16.0934 N/A
3:52 am 03:52 Partly Cloudy 69 20.6 67 19.4 93 93 S 6 9 29.82 1010 10 16.0934 N/A
4:52 am 04:52 Partly Cloudy 70 21.1 67 19.4 90 90 S 7 11 29.83 1010 10 16.0934 N/A
5:52 am 05:52 Clear 69 20.6 68 20 96 96 S 6 9 29.83 1010 10 16.0934 N/A
6:52 am 06:52 Partly Cloudy 70 21.1 68 20 93 93 S 7 11 29.83 1010 10 16.0934 N/A
7:52 am 07:52 Partly Cloudy 72 22.2 70 21.1 94 94 S 9 15 29.84 1010 10 16.0934 N/A
8:06 am 08:06 Mostly Cloudy 72 22 70 21 94 94 S 9 15 29.85 1011 10 16.0934 N/A
8:52 am 08:52 Mostly Cloudy 74 23.3 71 21.7 91 91 S 10 17 29.84 1010 10 16.0934 N/A
9:20 am 09:20 Mostly Cloudy 75 24 72 22 89 89 S 9 15 29.83 1010 10 16.0934 N/A
9:40 am 09:40 Cloudy with Light Rain 75 24 72 22 89 89 S 12 19 29.85 1011 6 9.65604 N/A
9:52 am 09:52 Cloudy 75 23.9 72 22.2 90 90 SSW 9 15 29.84 1011 10 16.0934 0.01 0.254
10:34 am 10:34 Mostly Cloudy with Light Rain 75 24 72 22 89 89 SSW 12 19 29.85 1011 7 11.26538 N/A
10:52 am 10:52 Cloudy 75 23.9 71 21.7 88 88 SSW 12 19 29.85 1011 8 12.87472 0.02 0.508
11:35 am 11:35 Cloudy 75 24 72 22 89 89 SSW 12 19 29.85 1011 10 16.0934 N/A
11:52 am 11:52 Cloudy with Light Rain 77 25 71 21.7 82 82 SSW 14 22 29.83 1010 8 12.87472 N/A
12:52 pm 12:52 Cloudy 79 26.1 72 22.2 79 79 S 13 20 29.84 1011 10 16.0934 N/A
1:52 pm 13:52 Mostly Cloudy 80 26.7 71 21.7 74 74 S 13 20 29.83 1010 10 16.0934 N/A
2:52 pm 14:52 Mostly Cloudy 82 27.8 72 22.2 72 72 SSW 13 20 29.81 1010 10 16.0934 N/A
3:52 pm 15:52 Cloudy 82 27.8 71 21.7 69 69 SW 8 13 29.79 1009 10 16.0934 N/A
4:52 pm 16:52 Mostly Cloudy 82 27.8 70 21.1 67 67 SSW 12 19 29.77 1008 10 16.0934 N/A
5:43 pm 17:43 Mostly Cloudy with Thunderstorms 81 27 72 22 74 74 SW 6 9 29.74 1007 10 16.0934 N/A
5:52 pm 17:52 Cloudy with Thunderstorms 81 27.2 71 21.7 72 72 SW 5 7 29.77 1008 10 16.0934 N/A
6:10 pm 18:10 Cloudy with Heavy Thunderstorms 77 25 72 22 83 83 WSW 14 22 29.74 1007 1 1.60934 N/A
6:20 pm 18:20 Cloudy with Heavy Thunderstorms 70 21 68 20 94 94 W 16 26 29.77 1008 1.75 2.816345 N/A
6:26 pm 18:26 Cloudy with Heavy Thunderstorms 72 22 70 21 94 94 W 13 20 29.77 1008 1.75 2.816345 0.38 9.652
6:37 pm 18:37 Cloudy with Thunderstorms 72 22 70 21 94 94 SSW 8 13 29.8 1009 3 4.82802 0.44 11.176
6:47 pm 18:47 Cloudy with Light Thunderstorms 72 22 70 21 94 94 SSW 7 11 29.8 1009 5 8.0467 0.49 12.446
6:52 pm 18:52 Cloudy with Light Thunderstorms 71 21.7 70 21.1 96 96 SSW 7 11 29.8 1009 7 11.26538 0.49 12.446
7:00 pm 19:00 Cloudy with Light Rain 72 22 70 21 94 94 SSW 7 11 29.8 1009 6 9.65604 N/A
7:52 pm 19:52 Cloudy 72 22.2 70 21.1 94 94 SSW 5 7 29.78 1009 9 14.48406 0.08 2.032
8:52 pm 20:52 Mostly Cloudy 71 21.7 69 20.6 94 94 SSW 5 7 29.77 1008 10 16.0934 N/A
9:52 pm 21:52 Mostly Cloudy 70 21.1 69 20.6 97 97 S 6 9 29.78 1009 8 12.87472 N/A
10:52 pm 22:52 Mostly Cloudy 71 21.7 69 20.6 94 94 SSW 7 11 29.8 1009 10 16.0934 N/A
11:31 pm 23:31 Mostly Cloudy 72 22 70 21 94 94 SSW 8 13 29.8 1009 8 12.87472 N/A
11:52 pm 23:52 Mostly Cloudy 71 21.7 70 21.1 96 96 SSW 8 13 29.79 1009 9 14.48406 N/A

Powered by AerisWeather